Location: Unspecified
(45.6635°N, 122.4424°W)
Time: 21:11:05
(UTC+00:00)

Resurs 1-4 Rocket - Visible Passes

Search period start: 20 June 2018 00:00
Search period end: 30 June 2018 00:00
Orbit: 800 x 813 km, 98.5° (Epoch: 20 June)

Date Brightness Start Highest point End Pass type
(mag) Time Alt. Az. Time Alt. Az. Time Alt. Az.
20 Jun 2.8 09:46:59 10° NNE 09:52:09 47° E 09:55:40 19° SSE visible
20 Jun 3.4 11:27:19 10° N 11:31:43 27° WNW 11:36:06 10° WSW visible
21 Jun 3.5 09:22:46 10° NE 09:27:24 29° E 09:30:46 16° SE visible
21 Jun 2.8 11:02:21 10° N 11:07:20 41° WNW 11:11:51 12° SW visible
22 Jun 4.1 08:58:57 10° NE 09:02:34 18° E 09:05:53 11° SE visible
22 Jun 2.2 10:37:35 10° N 10:42:53 66° WNW 10:46:58 17° SSW visible
23 Jun 4.5 08:36:29 10° ENE 08:37:38 11° E 08:38:48 10° E visible
23 Jun 2.2 10:12:57 10° NNE 10:18:19 79° ESE 10:22:04 20° S visible
24 Jun 2.8 09:48:30 10° NNE 09:53:41 49° E 09:57:10 20° SSE visible
24 Jun 3.5 11:28:53 10° N 11:33:14 26° WNW 11:37:33 10° WSW visible
25 Jun 3.5 09:24:16 10° NE 09:28:57 30° E 09:32:16 16° SSE visible
25 Jun 2.9 11:03:55 10° N 11:08:51 40° WNW 11:13:21 12° SW visible
26 Jun 4.1 09:00:25 10° NE 09:04:07 19° E 09:07:22 12° SE visible
26 Jun 2.3 10:39:07 10° N 10:44:24 64° WNW 10:48:27 17° SSW visible
27 Jun 4.5 08:37:42 10° ENE 08:39:12 11° E 08:40:41 10° ESE visible
27 Jun 2.1 10:14:29 10° NNE 10:19:51 82° ESE 10:23:33 21° S visible
28 Jun 2.7 09:50:01 10° NNE 09:55:13 50° E 09:58:39 21° SSE visible
28 Jun 3.5 11:30:27 10° N 11:34:44 25° WNW 11:39:01 10° WSW visible
29 Jun 3.4 09:25:46 10° NNE 09:30:29 31° E 09:33:44 17° SSE visible
29 Jun 2.9 11:05:28 10° N 11:10:22 39° WNW 11:14:49 12° SW visible
